Weather History for Hayward, WI

Change the Weather History Date:

Wednesday, November 13, 2013

  Actual Average Record
Temperature  
Mean Temperature 32 °F -  
Max Temperature 46 °F 37 °F 66 °F (1999)
Min Temperature 19 °F 18 °F -2 °F (1996)
Degree Days  
Heating Degree Days 32    
Moisture  
Dew Point 21 °F    
Average Humidity 61    
Maximum Humidity 79    
Minimum Humidity 42    
Precipitation  
Precipitation 0.00 in - - ()
Sea Level Pressure  
Sea Level Pressure 30.06 in    
Wind  
Wind Speed 7 mph (SSW)    
Max Wind Speed 14 mph    
Max Gust Speed 24 mph    
Visibility 10 miles    
Events      
Averages and records for this station are not official NWS values.
T = Trace of Precipitation, MM = Missing Value Source: NWS Daily Summary

Daily Weather History Graph

Daily Weather History Graph

Search for Another Location

Airport:

Trip Planner

Search our weather history database for the weather conditions in past years. The results will help you decide how hot, cold, wet, or windy it might be!

Date:

Astronomy

Nov. 13, 2013 Rise Set
Actual Time 7:03 AM CST 4:35 PM CST
Civil Twilight 6:31 AM CST 5:08 PM CST
Nautical Twilight 5:55 AM CST 5:44 PM CST
Astronomical Twilight 5:20 AM CST 6:19 PM CST
Moon 2:34 PM CST (11/13) 2:44 AM CST (11/13)
Length of Visible Light 10h 36m
Length of Day
9h 31m
Waxing Gibbous, 85% of the Moon is Illuminated
Nov 13
Waxing Gibbous
Nov 17
Full
Nov 25
Last Quarter
Dec 2
New
Dec 9
First Quarter

Hourly Weather History & Observations

Time (CST) Temp. Windchill Dew Point Humidity Pressure Visibility Wind Dir Wind Speed Gust Speed Precip Events Conditions
12:53 AM 19.0 °F 12.3 °F 10.0 °F 68% 30.43 in 10.0 mi SSW 4.6 mph - N/A   Clear
1:53 AM 19.9 °F 13.4 °F 10.9 °F 68% 30.40 in 10.0 mi South 4.6 mph - N/A   Clear
2:53 AM 19.0 °F 11.1 °F 10.9 °F 71% 30.37 in 10.0 mi South 5.8 mph - N/A   Clear
3:53 AM 19.0 °F 12.3 °F 12.0 °F 74% 30.33 in 10.0 mi South 4.6 mph - N/A   Clear
4:53 AM 19.9 °F 11.1 °F 12.0 °F 71% 30.29 in 10.0 mi South 6.9 mph - N/A   Clear
5:53 AM 21.0 °F 11.4 °F 12.0 °F 68% 30.24 in 10.0 mi South 8.1 mph - N/A   Clear
6:53 AM 21.9 °F 10.4 °F 12.0 °F 66% 30.21 in 10.0 mi South 11.5 mph 16.1 mph N/A   Clear
7:53 AM 24.1 °F 14.4 °F 14.0 °F 65% 30.18 in 10.0 mi South 9.2 mph - N/A   Clear
8:53 AM 28.0 °F 17.5 °F 15.1 °F 58% 30.14 in 10.0 mi SSW 12.7 mph 17.3 mph N/A   Clear
9:53 AM 32.0 °F 23.0 °F 18.0 °F 56% 30.08 in 10.0 mi SSW 11.5 mph 20.7 mph N/A   Clear
10:53 AM 36.0 °F 27.1 °F 19.9 °F 52% 30.03 in 10.0 mi SSW 13.8 mph 23.0 mph N/A   Clear
11:53 AM 39.9 °F 32.5 °F 21.9 °F 49% 29.98 in 10.0 mi SSW 12.7 mph 20.7 mph N/A   Clear
12:53 PM 44.1 °F 38.1 °F 24.1 °F 45% 29.94 in 10.0 mi SSW 11.5 mph 24.2 mph N/A   Clear
1:53 PM 46.9 °F - 25.0 °F 42% 29.91 in 10.0 mi SW 8.1 mph 18.4 mph N/A   Clear
2:53 PM 46.9 °F - 25.0 °F 42% 29.88 in 10.0 mi SSW 9.2 mph 21.9 mph N/A   Clear
3:53 PM 46.0 °F 41.9 °F 26.1 °F 46% 29.89 in 10.0 mi SW 8.1 mph - N/A   Clear
4:53 PM 44.1 °F 39.0 °F 26.1 °F 49% 29.89 in 10.0 mi SSW 9.2 mph - N/A   Clear
5:53 PM 43.0 °F 37.7 °F 27.0 °F 53% 29.90 in 10.0 mi SW 9.2 mph - N/A   Clear
6:53 PM 42.1 °F 38.4 °F 28.9 °F 60% 29.91 in 10.0 mi SSW 5.8 mph - N/A   Clear
7:53 PM 41.0 °F 38.0 °F 30.0 °F 65% 29.91 in 10.0 mi SW 4.6 mph - N/A   Clear
8:53 PM 37.9 °F 33.5 °F 30.0 °F 73% 29.89 in 10.0 mi SSW 5.8 mph - N/A   Clear
9:53 PM 37.9 °F 35.5 °F 30.0 °F 73% 29.89 in 10.0 mi SSW 3.5 mph - N/A   Clear
10:53 PM 36.0 °F 33.3 °F 30.0 °F 79% 29.88 in 10.0 mi SSW 3.5 mph - N/A   Clear
11:53 PM 36.0 °F 33.3 °F 30.0 °F 79% 29.86 in 10.0 mi SSW 3.5 mph - N/A   Clear